Showing default

APSTAR 5 (TELSTAR 18), 28364

Orbit data source: Space-Track

APSTAR 5 (TELSTAR 18), 28364 is a payload satellite owned by SS/Loral (CN) in GEO that was launched on Tue, 29 Jun 2004 UTC via a ZENIT-3SL launch vehicle from the Sea Launch (SEAL). Payload-class satellites include a variety of spacecraft equipped with specific instruments for various scientific and technological missions. These include communications satellites like Starlink; space stations such as the ISS; scientific satellites like the Hubble; Earth observation satellites from companies like Planet Labs, Umbra, and HawkEye 360; GPS; miniature CubeSats for education and research; and military/defense satellites.

Not visible in the next 10 days
Identifier
28364, 2004-024A
Orbit
GEO
Country
Flag of CNCN / PRC
Related business
Manufacturer
SS/Loral
Mission
Non-operational Commercial Communications
Bus & Motor
SSL-1300, R-4D-11-164
Mass
4,845 kg wet, ~2,000 kg dry
Launch date (UTC)
2004-06-29 (21 years ago)
Launch vehicle
ZENIT-3SL
Launch site
Sea Launch (SEAL)
Object type
Payload
Rocket body
Debris
Shape & HBR
Box + 2 Pan, 15.5 m
Radar Cross Section
40.765 m², Large (>1 m²)

Expand to show TLE details & history
Last TLE update: 8 hours ago

TLE from 8 hours ago
0 APSTAR 5 (TELSTAR 18)
1 28364U 04024A   25294.66307138 -.00000193  00000-0  00000-0 0  9993
2 28364   6.3640  72.5708 0001558 168.0854 148.1305  0.99013866 77934
Epoch: 2025-10-21T15:54Z
TLE epoch observation values (Epoch: 2025-10-21T15:54:49.367Z)
Latitude
-4.38822°
Longitude
119.88671°
Altitude
36,148.818 km
Speed
3.061 km/s
True Right ascension
01h 55m 45s
True Declination
-4° 23' 02"
Sunlit
Object was in daylight at epoch
Visualization orbit readout
Latitude
Unknown
Longitude
Unknown
Altitude
Unknown
Speed
Unknown
Apparent Right ascension
Unknown
Apparent Declination
Unknown
Sunlit
N/A
Visualization observer readout
Local Sidereal Time
18:32:43
Azimuth
Unknown
Elevation
Unknown
Doppler factor
Unknown
Orbital elements
Apogee altitude
36,150.631 km
Perigee altitude
36,137.381 km
Semi-major axis
42,522.143 km
Eccentricity
0.00016
Inclination
6.364°
RAAN
72.5708°
Arg. of periapsis
168.0854°
True anomaly
148.13992°
Mean anomaly
148.1305°
Eccentric anomaly
148.13521°
Mean motion
0.24753 °/min
Orbital period
1,454.39 mins
BSTAR
0
Loading maneuver chart data...
Computing Atmospheric mass density...
Loading historical data...
Loading historical data...
Loading historical data...
Loading historical data...
Loading historical data...
Loading historical data...
Loading historical data...
Other satellites on launch #24 in the year 2004 (2004-06-29 UTC)

Documentation

Showing up to 5 results
|